Chapel Hill, NC

2:04 PM EDT on May 22, 2017 (GMT -0400)
Williams

Weather History for KIGX - November, 2012

Change the Weather History Date:

Tuesday, November 13, 2012

  Actual Average Record
Temperature  
Mean Temperature 52 °F -  
Max Temperature 64 °F 60 °F 82 °F (1955)
Min Temperature 39 °F 36 °F 23 °F (1950)
Degree Days  
Heating Degree Days 14    
Growing Degree Days 2 (Base 50)    
Moisture  
Dew Point 45 °F    
Average Humidity 88    
Maximum Humidity 93    
Minimum Humidity 80    
Precipitation  
Precipitation 0.18 in - - ()
Sea Level Pressure  
Sea Level Pressure 30.31 in    
Wind  
Wind Speed 5 mph (North)    
Max Wind Speed 14 mph    
Max Gust Speed 18 mph    
Visibility 10 miles    
Events Rain    
Averages and records for this station are not official NWS values.
T = Trace of Precipitation, MM = Missing Value Source: NWS Daily Summary

Daily Weather History Graph

Daily Weather History Graph

Search for Another Location

Airport or City:

Trip Planner

Search our weather history database for the weather conditions in past years. The results will help you decide how hot, cold, wet, or windy it might be!

Date:

Astronomy

Nov. 13, 2012 Rise Set
Actual Time 6:51 AM EST 5:09 PM EST
Civil Twilight 6:23 AM EST 5:36 PM EST
Nautical Twilight 5:53 AM EST 6:07 PM EST
Astronomical Twilight 5:22 AM EST 6:38 PM EST
Moon 6:26 AM EST (11/13) 5:02 PM EST (11/13)
Length of Visible Light 11h 13m
Length of Day
10h 18m
Waning Crescent, 0% of the Moon is Illuminated
Nov 13
Waning Crescent
Nov 13
New
Nov 20
First Quarter
Nov 28
Full
Dec 6
Last Quarter

Hourly Weather History & Observations

Time (EST) Temp. Windchill Dew Point Humidity Pressure Visibility Wind Dir Wind Speed Gust Speed Precip Events Conditions
12:56 AM 64.0 °F - 59.0 °F 84% 30.17 in 10.0 mi Calm Calm - N/A   Overcast
1:56 AM 63.0 °F - 59.0 °F 87% 30.16 in 10.0 mi Calm Calm - N/A   Overcast
2:56 AM 62.1 °F - 59.0 °F 90% 30.16 in 10.0 mi Calm Calm - N/A   Overcast
3:56 AM 62.1 °F - 57.9 °F 86% 30.15 in 10.0 mi Calm Calm - N/A   Overcast
4:10 AM 60.8 °F - 55.4 °F 82% 30.18 in 10.0 mi WNW 13.8 mph 18.4 mph N/A   Overcast
4:48 AM 53.6 °F - 50.0 °F 88% 30.22 in 10.0 mi NNW 8.1 mph 18.4 mph 0.03 in Rain Light Rain
4:56 AM 53.1 °F - 48.9 °F 86% 30.21 in 10.0 mi NNW 6.9 mph - 0.03 in   Overcast
5:10 AM 51.8 °F - 48.2 °F 88% 30.23 in 10.0 mi WNW 6.9 mph - N/A   Overcast
5:54 AM 51.8 °F - 46.4 °F 82% 30.25 in 10.0 mi Variable 5.8 mph - N/A   Overcast
5:56 AM 51.1 °F - 46.9 °F 86% 30.25 in 10.0 mi North 5.8 mph - N/A   Overcast
6:56 AM 48.9 °F - 44.1 °F 83% 30.27 in 10.0 mi Variable 5.8 mph - N/A   Overcast
7:56 AM 46.9 °F - 41.0 °F 80% 30.31 in 10.0 mi NNW 10.4 mph 16.1 mph 0.00 in Rain Light Rain
8:56 AM 46.0 °F 41.9 °F 42.1 °F 86% 30.33 in 6.0 mi NNW 8.1 mph - 0.00 in Rain Light Rain
9:02 AM 46.4 °F 41.9 °F 42.8 °F 87% 30.34 in 5.0 mi NNW 9.2 mph - 0.01 in Rain Light Rain
9:56 AM 46.0 °F 44.8 °F 43.0 °F 89% 30.34 in 8.0 mi Variable 3.5 mph - 0.03 in   Overcast
10:56 AM 46.0 °F 41.9 °F 43.0 °F 89% 30.35 in 8.0 mi NNW 8.1 mph - 0.01 in Rain Light Rain
11:44 AM 46.4 °F 41.9 °F 42.8 °F 87% 30.34 in 10.0 mi NNW 9.2 mph 16.1 mph 0.06 in Rain Light Rain
11:56 AM 45.0 °F 41.2 °F 41.0 °F 86% 30.33 in 10.0 mi Variable 6.9 mph - 0.06 in Rain Light Rain
12:56 PM 46.9 °F - 44.1 °F 90% 30.32 in 10.0 mi NW 5.8 mph - 0.04 in Rain Light Rain
1:04 PM 46.4 °F 42.4 °F 44.6 °F 93% 30.32 in 10.0 mi NNW 8.1 mph - 0.01 in Rain Light Rain
1:15 PM 46.4 °F 43.5 °F 44.6 °F 93% 30.32 in 10.0 mi NW 5.8 mph - 0.01 in   Overcast
1:24 PM 46.4 °F 43.5 °F 44.6 °F 93% 30.32 in 10.0 mi North 5.8 mph - 0.01 in   Overcast
1:36 PM 46.4 °F 43.5 °F 44.6 °F 93% 30.32 in 10.0 mi North 5.8 mph - 0.01 in   Overcast
1:56 PM 46.9 °F - 44.1 °F 90% 30.31 in 10.0 mi NNW 6.9 mph - 0.01 in   Overcast
2:46 PM 48.2 °F - 42.8 °F 82% 30.32 in 10.0 mi Calm Calm - N/A   Overcast
2:56 PM 48.0 °F - 43.0 °F 83% 30.31 in 10.0 mi Variable 4.6 mph - N/A   Overcast
3:25 PM 48.2 °F - 42.8 °F 82% 30.33 in 10.0 mi North 4.6 mph - N/A   Overcast
3:56 PM 48.0 °F - 44.1 °F 86% 30.32 in 10.0 mi Variable 4.6 mph - N/A   Overcast
4:28 PM 48.2 °F - 44.6 °F 87% 30.34 in 10.0 mi NNE 5.8 mph - N/A   Overcast
4:56 PM 48.0 °F - 44.1 °F 86% 30.34 in 10.0 mi North 4.6 mph - N/A   Overcast
5:24 PM 46.4 °F 43.5 °F 44.6 °F 93% 30.35 in 10.0 mi NE 5.8 mph - N/A   Overcast
5:32 PM 46.4 °F 42.4 °F 44.6 °F 93% 30.35 in 10.0 mi ENE 8.1 mph - N/A   Overcast
5:56 PM 46.0 °F 42.5 °F 43.0 °F 89% 30.35 in 10.0 mi NE 6.9 mph - N/A   Mostly Cloudy
6:56 PM 44.1 °F 42.5 °F 41.0 °F 89% 30.37 in 10.0 mi NE 3.5 mph - N/A   Scattered Clouds
7:56 PM 42.1 °F 40.2 °F 39.9 °F 92% 30.40 in 10.0 mi NNE 3.5 mph - N/A   Clear
8:56 PM 42.1 °F 39.2 °F 39.0 °F 89% 30.41 in 10.0 mi NNE 4.6 mph - N/A   Clear
9:56 PM 41.0 °F 38.0 °F 37.9 °F 89% 30.42 in 10.0 mi NNE 4.6 mph - N/A   Clear
10:56 PM 39.9 °F - 37.0 °F 89% 30.43 in 10.0 mi Calm Calm - N/A   Clear
11:56 PM 39.0 °F 35.7 °F 37.0 °F 93% 30.43 in 10.0 mi NNE 4.6 mph - N/A   Clear